Flag for U.S.A. Weather past 2 weeks in Flint, Michigan, U.S.A.

Now
67 °F

Overcast.


Feels Like: 67 °F
Forecast: 56 / 70 °F
Wind: 7 mph from West

Location: Bishop International Airport

Current Time: Aug 27, 2015 at 6:35:06 PM

Latest Report: Aug 27, 2015 at 5:00 PM


Visibility: 10 mi

Pressure: 30.18 "Hg

Humidity: 63%

Dew point: 54 °F

Location of FlintLocation

Historic Weather in Flint — Graph

°F

Flint temperature yesterday

Maximum temperature yesterday: 68 °F (at 2:53 PM)
Minimum temperature yesterday: 59 °F (at 12:53 AM)
Average temperature yesterday: 63 °F

Past Weeks' High & Low Weather Summary

 TemperatureHumidityPressure
High89 °F (Aug 16, 4:53 PM)90% (Aug 15, 3:53 AM)30.23 "Hg (Aug 15, 3:53 AM)
Low54 °F (Aug 27, 6:53 AM)39% (Aug 21, 3:53 PM)29.67 "Hg (Aug 20, 12:53 AM)
Average71 °F69%29.99 "Hg
* Reported Aug 12 3:53 PM — Aug 27 3:53 PM, Flint, Weather by CustomWeather, © 2015

Note: Actual official high and low records may vary slightly from our data, if they occured in-between our weather recording intervals... More about our weather records

Advertising

Flint weather history for previous 24 hours

 ConditionsComfort  
Time TempWeatherWind HumidityBarometerVisibility
3:53 PM
Thu, Aug 27
66 °FMostly cloudy.5 mph63%30.18 "Hg10 mi
2:53 PM66 °FOvercast.3 mph61%30.18 "Hg10 mi
1:53 PM65 °FOvercast.5 mph63%30.19 "Hg10 mi
12:53 PM64 °FOvercast.5 mph65%30.22 "Hg10 mi
11:53 AM64 °FOvercast.8 mph65%30.23 "Hg10 mi
10:53 AM64 °FOvercast.9 mph63%30.22 "Hg10 mi
9:53 AM64 °FOvercast.7 mph63%30.22 "Hg10 mi
8:53 AM62 °FOvercast.3 mph67%30.21 "Hg10 mi
7:53 AM58 °FOvercast.No wind84%30.19 "Hg10 mi
6:53 AM54 °FPassing clouds.3 mph90%30.19 "Hg10 mi
5:53 AM56 °FPassing clouds.3 mph87%30.17 "Hg10 mi
4:53 AM58 °FOvercast.3 mph87%30.16 "Hg10 mi
3:53 AM57 °FOvercast.3 mph87%30.16 "Hg10 mi
2:53 AM55 °FPassing clouds.No wind90%30.15 "Hg10 mi
1:53 AM58 °FPassing clouds.No wind81%30.15 "Hg10 mi
12:53 AM61 °FOvercast.5 mph75%30.15 "Hg10 mi
11:53 PM
Wed, Aug 26
61 °FPassing clouds.9 mph78%30.14 "Hg10 mi
10:53 PM63 °FOvercast.9 mph73%30.14 "Hg10 mi
9:53 PM64 °FMostly cloudy.7 mph73%30.14 "Hg10 mi
8:53 PM64 °FOvercast.12 mph75%30.12 "Hg10 mi
7:53 PM66 °FMore clouds than sun.6 mph70%30.10 "Hg10 mi
6:53 PM67 °FCloudy.6 mph66%30.10 "Hg10 mi
Weather by CustomWeather, © 2015

See weather overviewHow to use our weather pages